Aérodrome :
LOGIN :

S'inscrire | Disclaimer

   EN    FR    IT 

 










Légende :    VFR   VFR Marginal   IFR   IFR Intensif   IFR Très Intensif
Visi : 
Plafond : 
>= 8 km
>= 3000ft
5 à 8 km
1000 à 3000 ft
1500m à 5 km
500 à 1000 ft
800 à 1500m
200 à 500 ft
< 800m
< 200 ft
Symboles :   Orages  Brouillard  Fortes neiges  Fortes précipitations  Vent > 20 kt
SIGMETs :   Divers  Orages  Givrage  Turbulence  Onde Orograph.  Cendres Volcan.






- Altitude de l'aérodrome : 52 ft
- Code IATA : IOM


EGNS - Isle of Man

DERNIER METAR :
  • 271720Z 28013KT 9999 FEW030 07/M00 Q1007 NOSIG

METARs EXPIRÉS :
  • 271650Z 29013KT 9999 FEW030 07/M01 Q1007 NOSIG
  • 271620Z 29016KT 9999 FEW030 07/M01 Q1007 NOSIG
  • 271550Z 29019KT 9999 FEW030 07/M02 Q1006 NOSIG
  • 271520Z 30018KT 9999 FEW030 07/M01 Q1006 NOSIG
  • 271450Z 29020KT 9999 SCT030 07/M01 Q1006 NOSIG

TAF TAF EGNS
Valide du 27 à 18h jusqu'au 27 à 22h UTC


271700Z 2718/2722 26012KT 9999 FEW020



MET'MAP, la Météo Aéronautique d'un coup d'oeil ! - Copyright ORBIFLY Décembre 2007 - Disclaimer

ORBIFLY MET'MAP TEAM :

Programmation & Développement : Alexandra Zaïnal
Sur une idée originale de : Baudouin d'Aumeries
Assistance à la programmation : Marc-Olivier Méhu
Soutien technique & logistique : Manuel Goepfert

Contact : metmap@orbifly.com




SOURCES & CREDITS :

   NOAA